| time (UTC) | temp C | wind direction | speed KPH | gust KPH | rain 1hr cm | rain 24hr cm | rain mn cm | humidity % | barometer mb |
| 20260506135008 | -3 | 84 | 0.0 | 0.0 | 0.00 | 0.43 | 0.00 | 91 | 1019.0 |
| 20260506134518 | -3 | 85 | 0.0 | 0.0 | 0.00 | 0.43 | 0.00 | 91 | 1019.0 |
| 20260506134014 | -3 | 74 | 0.0 | 0.0 | 0.00 | 0.43 | 0.00 | 91 | 1018.9 |
| 20260506133501 | -3 | 74 | 0.0 | 0.0 | 0.00 | 0.43 | 0.00 | 91 | 1018.8 |
| 20260506133003 | -3 | 74 | 0.0 | 0.0 | 0.00 | 0.43 | 0.00 | 91 | 1018.7 |
| 20260506132503 | -3 | 74 | 0.0 | 0.0 | 0.00 | 0.43 | 0.00 | 92 | 1018.6 |
| 20260506132003 | -3 | 74 | 0.0 | 0.0 | 0.00 | 0.43 | 0.00 | 92 | 1018.6 |
| 20260506131507 | -3 | 74 | 0.0 | 0.0 | 0.00 | 0.43 | 0.00 | 92 | 1018.6 |
| 20260506131006 | -4 | 74 | 0.0 | 0.0 | 0.00 | 0.43 | 0.00 | 92 | 1018.5 |
| 20260506130506 | -4 | 74 | 0.0 | 0.0 | 0.00 | 0.43 | 0.00 | 92 | 1018.4 |
| 20260506130010 | -4 | 74 | 0.0 | 0.0 | 0.00 | 0.43 | 0.00 | 92 | 1018.2 |
| 20260506125510 | -4 | 74 | 0.0 | 0.0 | 0.00 | 0.43 | 0.00 | 92 | 1018.0 |
| 20260506125005 | -4 | 74 | 0.0 | 0.0 | 0.00 | 0.43 | 0.00 | 92 | 1018.1 |
| 20260506124513 | -4 | 74 | 0.0 | 1.6 | 0.00 | 0.43 | 0.00 | 92 | 1017.9 |
| 20260506124009 | -4 | 74 | 0.0 | 3.2 | 0.00 | 0.43 | 0.00 | 92 | 1017.9 |
| 20260506123510 | -4 | 74 | 0.0 | 3.2 | 0.00 | 0.43 | 0.00 | 92 | 1017.9 |
| 20260506123021 | -4 | 74 | 0.0 | 3.2 | 0.00 | 0.43 | 0.00 | 91 | 1017.8 |
| 20260506122508 | -4 | 74 | 1.6 | 4.8 | 0.00 | 0.43 | 0.00 | 91 | 1017.6 |
| 20260506122005 | -4 | 74 | 1.6 | 3.2 | 0.00 | 0.43 | 0.00 | 91 | 1017.7 |
| 20260506121508 | -4 | 76 | 1.6 | 4.8 | 0.00 | 0.43 | 0.00 | 91 | 1017.7 |
| 20260506121004 | -4 | 75 | 1.6 | 4.8 | 0.00 | 0.43 | 0.00 | 91 | 1017.7 |
| 20260506120506 | -4 | 76 | 1.6 | 3.2 | 0.00 | 0.43 | 0.00 | 91 | 1017.7 |
| 20260506120015 | -4 | 76 | 1.6 | 3.2 | 0.00 | 0.43 | 0.00 | 91 | 1017.5 |
| 20260506115506 | -4 | 76 | 1.6 | 3.2 | 0.00 | 0.43 | 0.00 | 91 | 1017.5 |
| 20260506115005 | -4 | 81 | 0.0 | 3.2 | 0.00 | 0.43 | 0.00 | 91 | 1017.5 |
| 20260506114513 | -3 | 88 | 0.0 | 3.2 | 0.00 | 0.43 | 0.00 | 91 | 1017.6 |
| 20260506114007 | -3 | 89 | 0.0 | 3.2 | 0.00 | 0.43 | 0.00 | 91 | 1017.6 |
| 20260506113511 | -3 | 89 | 0.0 | 3.2 | 0.00 | 0.43 | 0.00 | 91 | 1017.5 |
| 20260506113018 | -3 | 89 | 0.0 | 3.2 | 0.00 | 0.43 | 0.00 | 91 | 1017.4 |
| 20260506112507 | -3 | 92 | 0.0 | 3.2 | 0.00 | 0.43 | 0.00 | 91 | 1017.3 |
| 20260506112009 | -3 | 96 | 0.0 | 3.2 | 0.00 | 0.43 | 0.00 | 91 | 1017.1 |
| 20260506111523 | -3 | 139 | 0.0 | 3.2 | 0.00 | 0.43 | 0.00 | 91 | 1017.0 |
| 20260506111007 | -3 | 83 | 0.0 | 3.2 | 0.00 | 0.43 | 0.00 | 91 | 1016.9 |
| 20260506110508 | -3 | 110 | 0.0 | 3.2 | 0.00 | 0.43 | 0.00 | 91 | 1016.8 |
| 20260506110007 | -3 | 110 | 0.0 | 3.2 | 0.00 | 0.43 | 0.00 | 91 | 1016.8 |
| 20260506105503 | -3 | 110 | 0.0 | 3.2 | 0.00 | 0.43 | 0.00 | 92 | 1016.8 |
| 20260506105004 | -3 | 99 | 0.0 | 3.2 | 0.00 | 0.43 | 0.00 | 92 | 1016.8 |
| 20260506104521 | -3 | 90 | 0.0 | 3.2 | 0.00 | 0.43 | 0.00 | 92 | 1016.7 |
| 20260506104009 | -3 | 88 | 0.0 | 3.2 | 0.00 | 0.43 | 0.00 | 92 | 1016.7 |
| 20260506103508 | -3 | 90 | 1.6 | 3.2 | 0.00 | 0.43 | 0.00 | 92 | 1016.7 |
| 20260506103034 | -3 | 123 | 0.0 | 3.2 | 0.00 | 0.43 | 0.00 | 92 | 1016.7 |
| 20260506102509 | -3 | 105 | 0.0 | 3.2 | 0.00 | 0.43 | 0.00 | 92 | 1016.8 |
| 20260506102007 | -3 | 94 | 0.0 | 3.2 | 0.00 | 0.43 | 0.00 | 92 | 1016.7 |
| 20260506101520 | -3 | 155 | 0.0 | 3.2 | 0.00 | 0.43 | 0.00 | 92 | 1016.6 |
| 20260506101009 | -3 | 125 | 0.0 | 3.2 | 0.00 | 0.43 | 0.00 | 92 | 1016.8 |
| 20260506100511 | -3 | 132 | 0.0 | 3.2 | 0.00 | 0.43 | 0.00 | 92 | 1016.9 |
| 20260506100023 | -3 | 122 | 0.0 | 3.2 | 0.00 | 0.43 | 0.00 | 92 | 1017.0 |
| 20260506095509 | -3 | 122 | 0.0 | 1.6 | 0.00 | 0.43 | 0.00 | 92 | 1016.6 |
| 20260506095009 | -3 | 122 | 0.0 | 0.0 | 0.00 | 0.43 | 0.00 | 92 | 1016.7 |
| 20260506094504 | -3 | 122 | 0.0 | 0.0 | 0.00 | 0.43 | 0.00 | 92 | 1016.9 |
| 20260506094006 | -3 | 122 | 0.0 | 3.2 | 0.00 | 0.43 | 0.00 | 92 | 1017.0 |
| 20260506093504 | -3 | 122 | 0.0 | 3.2 | 0.00 | 0.43 | 0.00 | 92 | 1017.0 |
| 20260506093019 | -3 | 122 | 0.0 | 3.2 | 0.00 | 0.43 | 0.00 | 92 | 1017.0 |
| 20260506092504 | -3 | 122 | 0.0 | 1.6 | 0.00 | 0.43 | 0.00 | 92 | 1016.9 |
| 20260506092007 | -3 | 111 | 0.0 | 3.2 | 0.00 | 0.43 | 0.00 | 92 | 1016.7 |
| 20260506091519 | -3 | 105 | 0.0 | 3.2 | 0.00 | 0.43 | 0.00 | 92 | 1016.8 |
| 20260506091010 | -3 | 105 | 0.0 | 3.2 | 0.00 | 0.43 | 0.00 | 92 | 1016.9 |
| 20260506090509 | -3 | 105 | 0.0 | 3.2 | 0.00 | 0.43 | 0.00 | 92 | 1016.8 |
| 20260506090021 | -3 | 105 | 0.0 | 3.2 | 0.00 | 0.43 | 0.00 | 92 | 1017.0 |
| 20260506085507 | -3 | 150 | 0.0 | 3.2 | 0.00 | 0.43 | 0.00 | 92 | 1017.1 |
| 20260506085009 | -3 | 150 | 0.0 | 3.2 | 0.00 | 0.43 | 0.00 | 92 | 1016.9 |
| 20260506084549 | -3 | 150 | 0.0 | 3.2 | 0.00 | 0.43 | 0.00 | 92 | 1016.9 |
| 20260506084012 | -3 | 114 | 0.0 | 3.2 | 0.00 | 0.46 | 0.00 | 91 | 1017.0 |
| 20260506083511 | -3 | 90 | 0.0 | 3.2 | 0.00 | 0.46 | 0.00 | 91 | 1016.9 |
| 20260506083026 | -3 | 90 | 0.0 | 3.2 | 0.00 | 0.48 | 0.00 | 91 | 1017.0 |
| 20260506082504 | -3 | 90 | 0.0 | 3.2 | 0.00 | 0.48 | 0.00 | 91 | 1017.0 |
| 20260506082004 | -3 | 90 | 0.0 | 3.2 | 0.00 | 0.48 | 0.00 | 91 | 1017.1 |
| 20260506081510 | -3 | 90 | 0.0 | 3.2 | 0.00 | 0.48 | 0.00 | 91 | 1017.0 |
| 20260506081010 | -3 | 90 | 0.0 | 3.2 | 0.00 | 0.48 | 0.00 | 91 | 1017.1 |
| 20260506080509 | -3 | 90 | 0.0 | 3.2 | 0.00 | 0.48 | 0.00 | 91 | 1017.1 |
| 20260506073511 | -3 | 88 | 0.0 | 4.8 | 0.00 | 0.61 | 0.00 | 91 | 1017.0 |
| 20260506073026 | -3 | 74 | 0.0 | 3.2 | 0.00 | 0.61 | 0.00 | 91 | 1017.1 |
| 20260506072510 | -3 | 80 | 0.0 | 3.2 | 0.00 | 0.61 | 0.00 | 91 | 1017.1 |
| 20260506072010 | -3 | 89 | 0.0 | 3.2 | 0.00 | 0.61 | 0.00 | 91 | 1017.2 |
| 20260506071527 | -3 | 87 | 0.0 | 4.8 | 0.00 | 0.64 | 0.00 | 91 | 1017.3 |
| 20260506071008 | -3 | 72 | 1.6 | 4.8 | 0.00 | 0.66 | 0.00 | 91 | 1017.2 |
| 20260506070506 | -3 | 81 | 1.6 | 4.8 | 0.00 | 0.66 | 0.00 | 91 | 1017.3 |
| 20260506062509 | -2 | 142 | 0.0 | 3.2 | 0.00 | 0.66 | 0.00 | 92 | 1017.1 |
| 20260506062011 | -2 | 94 | 0.0 | 4.8 | 0.00 | 0.66 | 0.00 | 92 | 1017.0 |
| 20260506061526 | -2 | 81 | 0.0 | 4.8 | 0.00 | 0.66 | 0.00 | 92 | 1016.9 |
| 20260506061011 | -2 | 73 | 0.0 | 4.8 | 0.00 | 0.66 | 0.00 | 92 | 1017.0 |
| 20260506060510 | -2 | 72 | 0.0 | 4.8 | 0.00 | 0.66 | 0.00 | 92 | 1017.0 |
| 20260506051013 | -2 | 69 | 0.0 | 3.2 | 0.00 | 0.66 | 0.66 | 92 | 1016.5 |
| 20260506050510 | -2 | 69 | 0.0 | 3.2 | 0.00 | 0.66 | 0.66 | 91 | 1016.4 |
| 20260506045007 | -2 | 69 | 0.0 | 0.0 | 0.00 | 0.66 | 0.66 | 91 | 1016.4 |
| 20260506044504 | -2 | 69 | 0.0 | 0.0 | 0.00 | 0.66 | 0.66 | 91 | 1016.4 |
| 20260506044004 | -2 | 69 | 0.0 | 3.2 | 0.00 | 0.66 | 0.66 | 91 | 1016.4 |
| 20260506043505 | -2 | 69 | 0.0 | 3.2 | 0.00 | 0.66 | 0.66 | 91 | 1016.4 |
| 20260506043003 | -2 | 69 | 0.0 | 0.0 | 0.00 | 0.66 | 0.66 | 91 | 1016.3 |
| 20260506042504 | -2 | 69 | 0.0 | 0.0 | 0.00 | 0.66 | 0.66 | 91 | 1016.4 |
| 20260506042003 | -2 | 69 | 0.0 | 0.0 | 0.00 | 0.66 | 0.66 | 91 | 1016.3 |
| 20260506041502 | -2 | 69 | 0.0 | 0.0 | 0.00 | 0.66 | 0.66 | 91 | 1016.3 |
| 20260506041002 | -2 | 69 | 0.0 | 3.2 | 0.00 | 0.66 | 0.66 | 91 | 1016.2 |
| 20260506040502 | -2 | 69 | 0.0 | 3.2 | 0.00 | 0.66 | 0.66 | 91 | 1016.2 |
| 20260506040006 | -2 | 69 | 0.0 | 3.2 | 0.00 | 0.66 | 0.66 | 91 | 1016.1 |
| 20260506035503 | -2 | 69 | 0.0 | 0.0 | 0.00 | 0.66 | 0.66 | 91 | 1016.1 |
| 20260506035007 | -2 | 69 | 0.0 | 0.0 | 0.00 | 0.66 | 0.66 | 91 | 1016.0 |
| 20260506034511 | -2 | 69 | 0.0 | 3.2 | 0.00 | 0.66 | 0.66 | 91 | 1015.9 |
| 20260506034008 | -2 | 69 | 0.0 | 3.2 | 0.00 | 0.66 | 0.66 | 91 | 1016.0 |
| 20260506033506 | -2 | 69 | 0.0 | 3.2 | 0.00 | 0.66 | 0.66 | 91 | 1016.0 |
| 20260506033002 | -2 | 69 | 0.0 | 3.2 | 0.00 | 0.66 | 0.66 | 91 | 1015.9 |
| 20260506032503 | -2 | 69 | 0.0 | 3.2 | 0.00 | 0.66 | 0.66 | 91 | 1015.8 |
| 20260506032003 | -2 | 69 | 0.0 | 3.2 | 0.00 | 0.66 | 0.66 | 91 | 1015.8 |
| 20260506031503 | -2 | 69 | 0.0 | 0.0 | 0.00 | 0.66 | 0.66 | 91 | 1015.8 |
| 20260506031003 | -2 | 69 | 0.0 | 3.2 | 0.00 | 0.66 | 0.66 | 91 | 1015.7 |
| 20260506030504 | -2 | 69 | 0.0 | 3.2 | 0.00 | 0.66 | 0.66 | 90 | 1015.6 |
| 20260506030004 | -2 | 69 | 0.0 | 0.0 | 0.00 | 0.66 | 0.66 | 90 | 1015.5 |
| 20260506025503 | -2 | 69 | 0.0 | 0.0 | 0.00 | 0.66 | 0.66 | 90 | 1015.6 |
| 20260506025005 | -2 | 69 | 0.0 | 0.0 | 0.00 | 0.66 | 0.66 | 90 | 1015.5 |
| 20260506024509 | -2 | 69 | 0.0 | 0.0 | 0.00 | 0.66 | 0.66 | 90 | 1015.4 |
| 20260506024008 | -2 | 69 | 0.0 | 3.2 | 0.00 | 0.66 | 0.66 | 90 | 1015.2 |
| 20260506023504 | -2 | 69 | 0.0 | 3.2 | 0.00 | 0.66 | 0.66 | 90 | 1015.1 |
| 20260506023012 | -2 | 69 | 0.0 | 3.2 | 0.00 | 0.66 | 0.66 | 90 | 1015.0 |
| 20260506022508 | -2 | 69 | 0.0 | 3.2 | 0.00 | 0.66 | 0.66 | 90 | 1014.9 |
| 20260506022008 | -2 | 69 | 0.0 | 3.2 | 0.00 | 0.66 | 0.66 | 90 | 1014.8 |
| 20260506021503 | -2 | 69 | 0.0 | 3.2 | 0.00 | 0.66 | 0.66 | 90 | 1014.6 |
| 20260506021004 | -2 | 69 | 0.0 | 3.2 | 0.00 | 0.66 | 0.66 | 90 | 1014.6 |
| 20260506020503 | -2 | 69 | 0.0 | 3.2 | 0.03 | 0.66 | 0.66 | 90 | 1014.5 |
| 20260506020004 | -2 | 69 | 0.0 | 3.2 | 0.03 | 0.66 | 0.66 | 90 | 1014.5 |
| 20260506015503 | -2 | 69 | 0.0 | 3.2 | 0.03 | 0.66 | 0.66 | 90 | 1014.4 |
| 20260506015004 | -2 | 69 | 0.0 | 3.2 | 0.03 | 0.66 | 0.66 | 90 | 1014.4 |
| 20260506014505 | -2 | 76 | 0.0 | 3.2 | 0.03 | 0.66 | 0.66 | 89 | 1014.2 |
| 20260506014004 | -2 | 85 | 0.0 | 3.2 | 0.03 | 0.66 | 0.66 | 89 | 1014.1 |
| 20260506013503 | -2 | 85 | 0.0 | 3.2 | 0.03 | 0.66 | 0.66 | 89 | 1014.2 |
| 20260506013008 | -2 | 85 | 0.0 | 3.2 | 0.03 | 0.69 | 0.66 | 89 | 1014.2 |
| 20260506012504 | -2 | 85 | 0.0 | 3.2 | 0.03 | 0.71 | 0.66 | 89 | 1014.1 |
| 20260506012005 | -2 | 85 | 0.0 | 3.2 | 0.03 | 0.71 | 0.66 | 89 | 1014.1 |
| 20260506011512 | -2 | 85 | 0.0 | 3.2 | 0.03 | 0.71 | 0.66 | 89 | 1013.9 |
| 20260506011007 | -2 | 142 | 0.0 | 3.2 | 0.03 | 0.71 | 0.66 | 89 | 1013.7 |
| 20260506010508 | -2 | 75 | 0.0 | 3.2 | 0.00 | 0.69 | 0.64 | 89 | 1013.8 |
| 20260506010020 | -2 | 70 | 0.0 | 3.2 | 0.00 | 0.69 | 0.64 | 89 | 1013.9 |
| 20260506005503 | -2 | 70 | 0.0 | 3.2 | 0.00 | 0.69 | 0.64 | 89 | 1013.8 |
| 20260506005004 | -2 | 67 | 0.0 | 4.8 | 0.00 | 0.71 | 0.64 | 89 | 1013.8 |
| 20260506004505 | -2 | 61 | 1.6 | 4.8 | 0.00 | 0.71 | 0.64 | 88 | 1013.8 |
| 20260506004006 | -1 | 63 | 1.6 | 3.2 | 0.00 | 0.74 | 0.64 | 88 | 1013.9 |
| 20260506003507 | -1 | 67 | 0.0 | 3.2 | 0.03 | 0.76 | 0.64 | 88 | 1013.9 |
| 20260506003008 | -1 | 67 | 1.6 | 4.8 | 0.03 | 0.76 | 0.64 | 88 | 1013.9 |
| 20260506002506 | -1 | 77 | 1.6 | 4.8 | 0.03 | 0.79 | 0.64 | 87 | 1013.9 |
| 20260506002006 | -1 | 77 | 0.0 | 3.2 | 0.03 | 0.81 | 0.64 | 87 | 1013.8 |
| 20260506001508 | -1 | 76 | 0.0 | 4.8 | 0.03 | 0.86 | 0.64 | 87 | 1013.6 |
| 20260506001004 | -1 | 76 | 0.0 | 4.8 | 0.03 | 0.91 | 0.64 | 87 | 1013.6 |
| 20260506000509 | -1 | 74 | 0.0 | 4.8 | 0.03 | 0.99 | 0.64 | 87 | 1013.6 |
| 20260506000015 | -1 | 80 | 0.0 | 4.8 | 0.03 | 1.02 | 0.64 | 87 | 1013.7 |
| 20260505235508 | -1 | 76 | 1.6 | 4.8 | 0.03 | 1.04 | 0.64 | 87 | 1013.6 |
| 20260505235008 | -1 | 74 | 0.0 | 3.2 | 0.03 | 1.07 | 0.64 | 86 | 1013.6 |
| 20260505234523 | -1 | 86 | 0.0 | 3.2 | 0.03 | 1.09 | 0.64 | 86 | 1013.6 |
| 20260505234004 | -1 | 83 | 0.0 | 3.2 | 0.03 | 1.12 | 0.64 | 86 | 1013.6 |
| 20260505233508 | -1 | 86 | 0.0 | 3.2 | 0.00 | 1.09 | 0.61 | 86 | 1013.4 |
| 20260505233003 | -1 | 153 | 0.0 | 3.2 | 0.00 | 1.12 | 0.61 | 86 | 1013.4 |
| 20260505232503 | -1 | 88 | 0.0 | 3.2 | 0.00 | 1.12 | 0.61 | 86 | 1013.4 |
| 20260505232006 | -1 | 106 | 0.0 | 3.2 | 0.00 | 1.14 | 0.61 | 87 | 1013.4 |
| 20260505231512 | -1 | 107 | 0.0 | 3.2 | 0.00 | 1.19 | 0.61 | 88 | 1013.5 |
| 20260505231008 | -1 | 146 | 0.0 | 3.2 | 0.00 | 1.24 | 0.61 | 88 | 1013.6 |
| 20260505230504 | -1 | 146 | 0.0 | 3.2 | 0.00 | 1.24 | 0.61 | 89 | 1013.7 |
| 20260505230023 | -1 | 146 | 0.0 | 3.2 | 0.00 | 1.24 | 0.61 | 90 | 1013.6 |
| 20260505225505 | -1 | 76 | 0.0 | 3.2 | 0.00 | 1.24 | 0.61 | 90 | 1013.5 |
| 20260505225009 | -2 | 76 | 0.0 | 3.2 | 0.00 | 1.24 | 0.61 | 90 | 1013.5 |
| 20260505224517 | -2 | 76 | 0.0 | 4.8 | 0.00 | 1.24 | 0.61 | 90 | 1013.6 |
| 20260505224009 | -2 | 76 | 0.0 | 4.8 | 0.00 | 1.24 | 0.61 | 90 | 1013.6 |
| 20260505223510 | -2 | 78 | 1.6 | 4.8 | 0.00 | 1.24 | 0.61 | 90 | 1013.6 |
| 20260505223021 | -2 | 81 | 3.2 | 4.8 | 0.00 | 1.24 | 0.61 | 89 | 1013.6 |
| 20260505222512 | -2 | 73 | 1.6 | 4.8 | 0.00 | 1.24 | 0.61 | 89 | 1013.5 |
| 20260505222004 | -2 | 87 | 1.6 | 4.8 | 0.00 | 1.24 | 0.61 | 89 | 1013.6 |
| 20260505221507 | -1 | 78 | 3.2 | 4.8 | 0.00 | 1.24 | 0.61 | 89 | 1013.6 |
| 20260505221003 | -1 | 74 | 0.0 | 6.4 | 0.00 | 1.24 | 0.61 | 88 | 1013.6 |
| 20260505220504 | -1 | 84 | 3.2 | 6.4 | 0.03 | 1.24 | 0.61 | 88 | 1013.5 |
| 20260505220009 | -1 | 78 | 1.6 | 4.8 | 0.03 | 1.24 | 0.61 | 88 | 1013.5 |
| 20260505215508 | -2 | 85 | 0.0 | 4.8 | 0.03 | 1.24 | 0.61 | 87 | 1013.4 |
| 20260505215007 | -1 | 76 | 0.0 | 4.8 | 0.03 | 1.24 | 0.61 | 87 | 1013.2 |
| 20260505214516 | -1 | 125 | 0.0 | 9.7 | 0.03 | 1.24 | 0.61 | 87 | 1013.3 |
| 20260505214013 | -1 | 79 | 1.6 | 11.3 | 0.03 | 1.24 | 0.61 | 86 | 1013.2 |
| 20260505213510 | -1 | 99 | 1.6 | 11.3 | 0.03 | 1.24 | 0.61 | 87 | 1013.3 |
| 20260505213033 | -1 | 111 | 3.2 | 14.5 | 0.03 | 1.24 | 0.61 | 86 | 1013.4 |
| 20260505212510 | -1 | 87 | 1.6 | 14.5 | 0.03 | 1.24 | 0.61 | 86 | 1013.3 |
| 20260505212010 | -1 | 86 | 3.2 | 6.4 | 0.03 | 1.24 | 0.61 | 86 | 1013.2 |
| 20260505211524 | -1 | 119 | 1.6 | 6.4 | 0.03 | 1.24 | 0.61 | 85 | 1013.1 |
| 20260505211009 | -1 | 59 | 1.6 | 6.4 | 0.03 | 1.24 | 0.61 | 85 | 1013.2 |
| 20260505210502 | -1 | 80 | 1.6 | 8.0 | 0.00 | 1.22 | 0.58 | 85 | 1013.2 |
| 20260505210012 | -1 | 132 | 1.6 | 8.0 | 0.00 | 1.22 | 0.58 | 85 | 1013.2 |
| 20260505205509 | -1 | 152 | 0.0 | 8.0 | 0.00 | 1.22 | 0.58 | 85 | 1013.2 |
| 20260505205008 | 0 | 138 | 0.0 | 6.4 | 0.03 | 1.22 | 0.58 | 85 | 1013.2 |
| 20260505204513 | 0 | 157 | 0.0 | 6.4 | 0.03 | 1.22 | 0.58 | 85 | 1013.3 |
| 20260505204005 | 0 | 205 | 1.6 | 6.4 | 0.03 | 1.22 | 0.58 | 85 | 1013.2 |
| 20260505203508 | 0 | 176 | 0.0 | 3.2 | 0.03 | 1.22 | 0.58 | 85 | 1013.3 |
| 20260505203028 | 0 | 200 | 0.0 | 6.4 | 0.03 | 1.22 | 0.58 | 85 | 1013.4 |
| 20260505202506 | 0 | 107 | 0.0 | 6.4 | 0.03 | 1.22 | 0.58 | 86 | 1013.4 |
| 20260505202010 | 0 | 106 | 0.0 | 3.2 | 0.03 | 1.22 | 0.58 | 87 | 1013.3 |
| 20260505201530 | 0 | 106 | 0.0 | 4.8 | 0.05 | 1.22 | 0.58 | 87 | 1013.4 |
| 20260505201014 | 0 | 123 | 0.0 | 4.8 | 0.05 | 1.22 | 0.58 | 86 | 1013.6 |
| 20260505200510 | 0 | 169 | 0.0 | 3.2 | 0.05 | 1.22 | 0.58 | 86 | 1013.7 |
| 20260505200024 | 0 | 115 | 0.0 | 3.2 | 0.05 | 1.22 | 0.58 | 87 | 1013.9 |
| 20260505195511 | 0 | 115 | 0.0 | 3.2 | 0.05 | 1.22 | 0.58 | 87 | 1013.9 |
| 20260505195002 | 0 | 115 | 0.0 | 3.2 | 0.05 | 1.19 | 0.56 | 87 | 1014.0 |
| 20260505194512 | 0 | 115 | 0.0 | 3.2 | 0.05 | 1.19 | 0.56 | 87 | 1013.9 |
| 20260505194007 | 0 | 163 | 0.0 | 3.2 | 0.05 | 1.19 | 0.56 | 87 | 1013.8 |
| 20260505193506 | 0 | 163 | 0.0 | 3.2 | 0.05 | 1.19 | 0.56 | 87 | 1013.9 |
| 20260505193013 | 0 | 120 | 0.0 | 6.4 | 0.08 | 1.19 | 0.56 | 87 | 1014.0 |
| 20260505192512 | 0 | 147 | 0.0 | 6.4 | 0.08 | 1.19 | 0.56 | 87 | 1014.2 |
| 20260505192007 | 0 | 147 | 0.0 | 6.4 | 0.08 | 1.19 | 0.56 | 87 | 1014.3 |
| 20260505191522 | 0 | 166 | 0.0 | 3.2 | 0.05 | 1.17 | 0.53 | 88 | 1014.3 |
| 20260505191009 | 0 | 161 | 0.0 | 3.2 | 0.08 | 1.17 | 0.53 | 88 | 1014.5 |
| 20260505190510 | 0 | 161 | 0.0 | 3.2 | 0.08 | 1.17 | 0.53 | 88 | 1014.5 |
| 20260505190030 | 0 | 161 | 0.0 | 3.2 | 0.08 | 1.17 | 0.53 | 88 | 1014.5 |
| 20260505185512 | 0 | 161 | 0.0 | 3.2 | 0.08 | 1.17 | 0.53 | 88 | 1014.5 |
| 20260505185010 | 0 | 125 | 0.0 | 11.3 | 0.08 | 1.14 | 0.51 | 88 | 1014.5 |
| 20260505184527 | 0 | 154 | 1.6 | 11.3 | 0.08 | 1.14 | 0.51 | 87 | 1014.4 |
| 20260505184011 | 0 | 167 | 0.0 | 9.7 | 0.08 | 1.14 | 0.51 | 87 | 1014.5 |
| 20260505183504 | 0 | 92 | 0.0 | 11.3 | 0.10 | 1.14 | 0.51 | 86 | 1014.6 |
| 20260505183019 | 0 | 151 | 1.6 | 11.3 | 0.08 | 1.12 | 0.48 | 85 | 1014.3 |
| 20260505182507 | 0 | 161 | 1.6 | 6.4 | 0.08 | 1.12 | 0.48 | 85 | 1014.3 |
| 20260505182008 | 1 | 181 | 1.6 | 6.4 | 0.08 | 1.12 | 0.48 | 85 | 1014.2 |
| 20260505181504 | 1 | 187 | 0.0 | 4.8 | 0.08 | 1.12 | 0.48 | 86 | 1014.3 |
| 20260505181004 | 0 | 144 | 0.0 | 3.2 | 0.08 | 1.09 | 0.46 | 87 | 1014.4 |
| 20260505180503 | 0 | 142 | 0.0 | 3.2 | 0.08 | 1.09 | 0.46 | 87 | 1014.5 |
| 20260505180003 | 0 | 142 | 0.0 | 4.8 | 0.08 | 1.09 | 0.46 | 86 | 1014.4 |
| 20260505175503 | 0 | 140 | 0.0 | 4.8 | 0.10 | 1.09 | 0.46 | 86 | 1014.6 |
| 20260505175003 | 0 | 152 | 0.0 | 4.8 | 0.08 | 1.07 | 0.43 | 86 | 1014.7 |
| 20260505174509 | 0 | 166 | 0.0 | 4.8 | 0.08 | 1.07 | 0.43 | 86 | 1014.7 |
| 20260505174004 | 0 | 167 | 0.0 | 3.2 | 0.10 | 1.07 | 0.43 | 86 | 1014.7 |
| 20260505173505 | 0 | 161 | 0.0 | 3.2 | 0.08 | 1.04 | 0.41 | 86 | 1014.7 |
| 20260505173012 | 0 | 161 | 0.0 | 3.2 | 0.08 | 1.04 | 0.41 | 86 | 1014.8 |
| 20260505172504 | 0 | 169 | 0.0 | 3.2 | 0.10 | 1.04 | 0.41 | 85 | 1014.8 |
| 20260505172010 | 0 | 84 | 0.0 | 3.2 | 0.10 | 1.04 | 0.41 | 86 | 1014.9 |
| 20260505171515 | 0 | 84 | 0.0 | 4.8 | 0.10 | 1.04 | 0.41 | 86 | 1014.9 |
| 20260505171010 | 1 | 84 | 0.0 | 4.8 | 0.08 | 1.02 | 0.38 | 85 | 1015.0 |
| 20260505170508 | 1 | 77 | 0.0 | 4.8 | 0.08 | 1.02 | 0.38 | 84 | 1015.0 |
| 20260505170002 | 1 | 86 | 0.0 | 4.8 | 0.10 | 1.02 | 0.38 | 84 | 1015.2 |
| 20260505165503 | 1 | 116 | 0.0 | 3.2 | 0.08 | 0.99 | 0.36 | 85 | 1015.5 |
| 20260505165003 | 1 | 148 | 0.0 | 3.2 | 0.08 | 0.99 | 0.36 | 85 | 1015.2 |
| 20260505164503 | 1 | 148 | 0.0 | 3.2 | 0.08 | 0.99 | 0.36 | 85 | 1015.2 |
| 20260505164003 | 1 | 90 | 0.0 | 4.8 | 0.05 | 0.97 | 0.33 | 86 | 1015.0 |
| 20260505163503 | 0 | 90 | 0.0 | 4.8 | 0.08 | 0.97 | 0.33 | 87 | 1015.0 |
| 20260505163010 | 0 | 89 | 1.6 | 4.8 | 0.08 | 0.97 | 0.33 | 87 | 1015.1 |
| 20260505162504 | 0 | 80 | 1.6 | 4.8 | 0.05 | 0.94 | 0.30 | 87 | 1015.0 |
| 20260505162007 | 0 | 91 | 0.0 | 6.4 | 0.05 | 0.94 | 0.30 | 87 | 1015.0 |
| 20260505161510 | 0 | 150 | 0.0 | 8.0 | 0.05 | 0.94 | 0.30 | 87 | 1015.1 |
| 20260505161007 | 0 | 153 | 1.6 | 8.0 | 0.05 | 0.94 | 0.30 | 87 | 1015.3 |
| 20260505160507 | 0 | 79 | 0.0 | 3.2 | 0.05 | 0.94 | 0.30 | 87 | 1015.3 |
| 20260505153003 | 0 | 106 | 0.0 | 3.2 | 0.00 | 0.89 | 0.25 | 87 | 1015.5 |
| 20260505152504 | 0 | 106 | 0.0 | 3.2 | 0.00 | 0.89 | 0.25 | 87 | 1015.5 |
| 20260505152005 | 0 | 106 | 0.0 | 0.0 | 0.03 | 0.89 | 0.25 | 88 | 1015.5 |
| 20260505151508 | 0 | 106 | 0.0 | 0.0 | 0.03 | 0.89 | 0.25 | 88 | 1015.5 |
| 20260505151004 | 0 | 106 | 0.0 | 0.0 | 0.03 | 0.89 | 0.25 | 89 | 1015.4 |
| 20260505150508 | 0 | 106 | 0.0 | 0.0 | 0.03 | 0.89 | 0.25 | 90 | 1015.5 |
| 20260505140506 | 0 | 106 | 0.0 | 0.0 | 0.00 | 0.86 | 0.23 | 93 | 1015.5 |